Location: Foligno
(42.9600°N, 12.7050°E)
Time: 10:19:15
(UTC+02:00)

ISS - Pass Details

Date: 14 May 2021
Orbit: 417 x 422 km, 51.6° (Epoch: 15 May)

Event Time Altitude Azimuth Distance (km) Brightness Sun altitude
Exits shadow 02:51:31 - 305° (NW) 2,202 0.0 -23.8°
Reaches altitude 10° 02:53:28 10° 319° (NW) 1,504 -0.7 -23.6°
Maximum altitude 02:56:14 23° 14° (NNE) 946 -1.2 -23.3°
Drops below altitude 10° 02:59:01 10° 69° (ENE) 1,503 -0.3 -23.1°
Sets 03:01:24 0° 85° (E) 2,367 0.5 -22.9°
